Flag for United Kingdom Weather past 2 weeks in Milton Keynes, England, United Kingdom

Now
64 °F

Passing clouds.


Feels Like: 64 °F
Forecast: 52 / 71 °F
Wind: 5 mph from Northeast

Location: Luton Airport

Current Time: Jul 5, 2015 at 8:54:07 AM

Latest Report: Jul 5, 2015 at 8:20 AM


Visibility: N/A

Pressure: 30.07 "Hg

Humidity: 68%

Dew point: 54 °F

Location of Milton KeynesLocation

Historic Weather in Milton Keynes — Graph

°F

Milton Keynes temperature yesterday

Maximum temperature yesterday: 79 °F (at 3:20 PM)
Minimum temperature yesterday: 57 °F (at 11:50 PM)
Average temperature yesterday: 69 °F

Past Weeks' High & Low Weather Summary

 TemperatureHumidityPressure
High91 °F (Jul 1, 12:20 PM)100% (Jun 20, 2:50 PM)30.30 "Hg (Jun 20, 2:50 PM)
Low48 °F (Jun 24, 4:20 AM)23% (Jun 30, 1:50 PM)29.77 "Hg (Jun 22, 11:50 AM)
Average64 °F71%30.06 "Hg
* Reported Jun 20 7:20 AM — Jul 5 7:50 AM, Milton Keynes, Weather by CustomWeather, © 2015

Note: Actual official high and low records may vary slightly from our data, if they occured in-between our weather recording intervals... More about our weather records

Advertising

Milton Keynes weather history for previous 24 hours

 ConditionsComfort  
Time TempWeatherWind HumidityBarometerVisibility
7:50 AM
Sun, Jul 5
64 °FPassing clouds.5 mph68%30.07 "HgN/A
7:20 AM63 °FPassing clouds.3 mph73%30.07 "HgN/A
6:50 AM61 °FSunny.3 mph72%30.09 "Hg10 mi
6:20 AM59 °FSunny.5 mph82%30.09 "Hg10 mi
5:50 AM57 °FSunny.5 mph82%30.09 "Hg10 mi
5:20 AM57 °FClear.7 mph88%30.09 "Hg10 mi
4:20 AM57 °FClear.7 mph88%30.09 "Hg10 mi
3:50 AM57 °FClear.6 mph88%30.09 "Hg10 mi
3:20 AM59 °FClear.5 mph82%30.09 "Hg10 mi
2:50 AM59 °FClear.3 mph82%30.09 "Hg10 mi
2:20 AM57 °FClear.3 mph88%30.12 "Hg10 mi
1:50 AM57 °FClear.3 mph88%30.12 "Hg10 mi
1:20 AM57 °FClear.5 mph88%30.12 "Hg10 mi
12:50 AM59 °FClear.8 mph88%30.12 "Hg10 mi
12:20 AM59 °FClear.6 mph88%30.12 "Hg10 mi
11:50 PM
Sat, Jul 4
57 °FClear.6 mph94%30.12 "Hg10 mi
11:20 PM59 °FClear.5 mph88%30.12 "Hg10 mi
10:50 PM63 °FClear.5 mph77%30.12 "Hg10 mi
10:20 PM63 °FClear.5 mph83%30.12 "Hg10 mi
9:50 PM64 °FSunny.6 mph78%30.12 "Hg10 mi
9:20 PM66 °FSunny.6 mph73%30.12 "Hg10 mi
8:50 PM68 °FSunny.8 mph69%30.09 "Hg10 mi
8:20 PM70 °FPassing clouds.8 mph64%30.09 "HgN/A
7:50 PM73 °FSunny.10 mph57%30.09 "Hg10 mi
7:20 PM75 °FPassing clouds.9 mph54%30.09 "HgN/A
6:50 PM77 °FPassing clouds.8 mph51%30.09 "HgN/A
6:20 PM73 °FSunny.12 mph53%30.09 "Hg10 mi
5:50 PM75 °FPassing clouds.12 mph50%30.09 "HgN/A
5:20 PM77 °FSunny.13 mph47%30.09 "Hg10 mi
4:50 PM79 °FSunny.10 mph48%30.09 "Hg10 mi
4:20 PM79 °FPassing clouds.13 mph48%30.09 "HgN/A
3:50 PM79 °FScattered clouds.10 mph51%30.09 "HgN/A
3:20 PM79 °FPassing clouds.14 mph48%30.07 "HgN/A
2:50 PM77 °FScattered clouds.13 mph54%30.07 "HgN/A
2:20 PM77 °FScattered clouds.14 mph54%30.07 "HgN/A
1:50 PM77 °FScattered clouds.14 mph54%30.07 "HgN/A
1:20 PM75 °FPassing clouds.13 mph61%30.07 "HgN/A
12:50 PM77 °FScattered clouds.15 mph57%30.07 "HgN/A
12:20 PM77 °FScattered clouds.13 mph57%30.07 "HgN/A
11:50 AM73 °FScattered clouds.13 mph65%30.07 "HgN/A
11:20 AM72 °FScattered clouds.12 mph69%30.04 "HgN/A
10:50 AM73 °FPassing clouds.15 mph65%30.04 "HgN/A
10:20 AM73 °FPassing clouds.17 mph61%30.04 "HgN/A
9:50 AM73 °FSunny.12 mph74%30.04 "Hg10 mi
9:20 AM72 °FPassing clouds.10 mph83%30.01 "Hg4 mi
8:50 AM68 °FFog.10 mph94%30.04 "Hg2 mi
8:20 AM68 °FFog.13 mph94%30.01 "Hg2 mi
Weather by CustomWeather, © 2015

See weather overviewHow to use our weather pages